Dewpoint
50 50 50 50 50 49 49 48 48 48 48 48 49 49 49 49 49 49 49 50 50 49 49 50 50 50 50 50 51 51 51 44 41 34 30 34 40 55 56 56 55 59 59 43 41 27 32 33 30 28 20 18 13 12 18 16 20 14 14 12 12 4 1 -3 -9 -2 10 10 11 16 22 25 27 27 37 35 36 41 41 46 49 51 54 57 58 58 62 64
49 50 50 50 49 49 48 48 47 47 48 49 49 49 49 48 49 48 49 50 50 49 49 50 50 50 50 50 50 51 47 43 40 33 28 35 51 57 55 58 56 57 57 30 30 21 24 25 23 22 15 14 13 10 18 13 19 13 12 9 8 3 -2 -2 12 11 10 12 12 17 26 30 27 25 27 34 39 39 40 43 48 54 55 57 59 61 63 63
50 49 49 49 49 49 48 48 47 48 48 48 48 49 49 49 48 47 48 48 50 49 49 50 50 49 50 50 50 52 47 40 37 28 20 58 55 56 57 58 55 59 34 22 28 20 19 21 20 19 13 11 13 9 17 13 18 13 13 8 6 5 5 14 16 14 15 14 12 14 22 28 27 30 27 32 34 36 35 38 42 50 56 55 60 62 62 63
49 49 49 49 49 49 49 48 48 48 48 48 48 48 49 50 50 48 48 48 48 49 49 50 49 49 49 50 51 48 43 40 25 6 33 60 56 56 57 58 55 57 27 23 26 22 20 19 20 18 11 9 13 9 17 17 16 11 11 10 6 3 8 11 14 17 14 13 12 14 19 33 33 29 27 32 31 31 31 33 38 43 51 55 57 60 62 62
49 49 49 49 49 49 49 48 48 48 47 48 48 48 48 48 49 49 48 48 48 49 49 49 49 48 49 50 51 45 42 19 1 31 40 58 60 57 59 58 59 33 21 20 23 21 20 17 18 16 10 8 8 8 13 15 15 12 7 11 7 13 3 10 15 17 15 13 11 12 12 25 25 26 29 31 28 27 29 32 37 45 50 53 56 60 61 61
49 49 49 49 49 48 48 48 48 48 48 48 47 47 48 46 49 49 48 48 48 49 50 49 49 49 49 50 45 41 37 5 28 36 63 65 59 59 60 59 60 35 17 18 20 19 17 16 17 15 9 8 6 10 11 11 16 14 17 13 9 10 3 16 16 16 14 11 10 9 8 13 14 22 27 26 22 27 30 34 38 45 48 51 56 61 62 61
49 48 49 48 49 48 47 47 48 47 48 47 47 47 47 48 48 48 49 48 49 48 48 49 49 48 49 50 44 41 34 27 18 39 54 61 63 60 57 59 59 40 21 15 16 16 16 15 16 13 8 6 5 10 10 7 16 12 13 9 8 12 9 18 16 15 13 11 10 9 9 9 8 18 29 21 25 29 33 35 38 44 47 50 53 58 61 61
48 49 48 48 48 48 48 47 47 48 48 48 46 46 47 48 48 47 48 48 48 49 48 49 49 48 49 43 39 31 22 14 15 42 59 64 57 55 56 38 30 26 25 15 12 13 15 14 14 11 8 4 2 9 9 6 13 10 8 12 7 9 10 16 17 13 13 12 9 8 8 7 9 18 25 21 24 24 35 40 41 45 46 49 52 56 59 59
48 48 48 47 48 47 47 47 47 48 48 48 46 45 47 48 47 48 48 48 48 47 48 49 48 48 49 44 38 26 16 13 25 34 52 51 49 49 43 35 29 22 22 15 11 11 13 10 12 10 5 4 3 7 8 8 12 13 7 11 10 7 10 14 16 14 11 9 7 7 7 7 9 15 19 22 28 32 36 40 42 43 45 48 53 58 58 60
48 48 48 47 47 47 47 46 47 48 48 48 47 47 47 47 47 47 49 48 48 47 48 49 48 48 43 39 32 21 17 24 27 34 35 35 43 47 41 33 28 22 20 14 10 11 10 9 10 10 7 2 0 6 7 11 12 11 5 5 8 7 9 13 14 14 11 8 8 6 7 6 8 12 16 22 27 31 36 39 42 42 43 48 53 58 60 59
48 47 47 47 47 47 47 47 48 48 48 48 48 47 47 47 47 47 47 47 47 49 48 49 47 46 42 40 31 15 24 29 33 39 40 39 41 41 36 32 26 23 18 13 10 10 9 9 9 7 4 5 7 8 8 11 8 14 8 3 6 7 8 13 14 13 10 7 8 7 6 6 6 9 17 27 31 33 38 40 40 41 43 47 52 56 59 59
47 47 46 47 47 47 47 47 48 48 47 47 47 47 47 47 46 46 47 47 48 48 47 47 47 44 41 36 30 17 32 32 33 37 40 39 37 36 33 31 26 23 16 11 11 11 11 11 9 6 5 5 7 8 7 11 8 10 13 5 6 8 9 13 12 12 12 7 7 8 5 5 5 13 33 34 35 37 37 39 39 40 42 47 53 56 57 57
47 47 47 46 47 47 47 47 47 47 47 47 46 46 46 47 47 47 47 47 47 47 47 48 48 41 41 35 25 23 21 25 26 29 28 36 34 35 35 34 27 22 16 12 12 11 11 11 12 9 5 12 4 3 7 10 9 13 10 7 4 4 7 13 12 11 9 5 7 6 5 5 4 22 33 33 39 38 37 37 37 41 43 47 49 53 56 57
48 47 47 46 46 47 46 47 46 47 47 47 46 47 47 47 47 47 47 47 47 47 47 47 44 44 41 31 22 15 14 16 12 12 17 20 30 30 31 30 26 22 20 17 15 12 11 13 14 13 9 11 8 14 11 10 10 7 7 5 6 2 2 9 10 9 8 5 5 6 8 4 7 13 14 31 37 39 36 36 39 41 42 46 49 52 55 57
47 47 47 46 46 47 47 47 47 47 47 47 47 47 47 46 46 45 46 46 47 46 47 47 44 43 39 27 23 18 40 18 9 6 10 11 23 31 26 25 23 24 26 24 20 17 18 18 16 10 6 8 15 13 9 9 8 6 3 2 4 4 -1 6 9 9 6 5 6 6 9 6 15 15 15 26 37 36 36 37 39 41 44 49 51 53 52 57
47 47 46 45 46 46 47 46 47 46 47 47 47 47 47 47 46 45 45 46 47 47 42 43 42 40 37 28 21 38 19 14 6 3 4 7 18 27 26 25 26 26 24 27 26 24 21 16 13 11 11 14 17 13 8 8 8 4 2 8 4 3 -2 3 7 9 6 4 5 4 3 24 26 24 22 22 33 35 35 37 43 45 46 48 51 52 54 57
47 46 46 46 46 47 47 47 46 46 46 47 48 48 48 47 46 46 46 45 43 42 41 37 37 39 30 20 19 17 13 11 4 -3 2 6 16 26 25 23 22 25 24 23 25 23 17 15 13 13 15 12 14 9 7 9 10 4 -0 7 1 0 -2 4 7 7 6 4 3 4 6 25 29 27 26 28 31 34 34 35 40 45 43 47 51 53 57 59
47 46 46 45 47 47 47 47 47 46 46 47 47 46 41 46 49 47 45 44 41 38 40 40 38 38 32 26 19 12 9 11 5 8 1 6 15 22 27 24 25 22 22 21 20 18 16 14 11 13 14 16 12 8 8 6 12 8 8 12 2 -0 4 5 6 6 4 3 4 5 9 29 30 30 30 29 30 33 36 35 40 42 44 48 49 54 58 59
46 46 45 46 47 47 47 46 46 45 46 47 47 48 49 49 46 43 39 38 36 38 31 33 36 25 13 13 15 12 8 2 9 11 5 5 13 19 30 29 26 23 20 17 17 14 15 10 16 15 13 15 14 5 4 4 5 4 3 5 4 2 3 3 6 5 6 3 2 3 16 28 29 32 34 34 33 38 40 41 37 41 44 47 56 57 57 59
46 46 46 46 47 47 47 46 46 46 46 45 42 43 43 43 39 35 36 36 32 30 13 25 29 19 11 11 11 12 21 20 16 11 10 6 11 18 29 29 28 25 20 17 15 11 13 9 16 16 14 15 14 7 4 5 5 4 2 2 10 0 -0 4 6 5 5 3 3 3 22 28 33 35 36 35 38 41 41 44 41 44 55 58 57 60 60 61
46 46 46 46 46 46 46 46 45 45 47 42 39 34 30 28 24 23 33 32 31 29 22 22 25 19 11 19 14 17 14 14 14 11 11 10 9 18 25 27 25 24 20 14 14 11 12 9 14 14 10 12 11 11 15 7 8 5 3 -1 7 2 -1 2 4 4 4 12 2 11 19 32 37 38 40 42 41 39 42 43 46 52 56 56 57 58 58 59
46 46 45 46 46 46 45 45 45 47 48 42 36 33 32 30 35 35 34 28 30 27 22 19 20 21 19 15 22 24 19 10 10 9 11 7 8 14 23 24 22 18 17 14 15 15 15 9 9 11 7 9 10 12 12 12 13 10 6 2 4 1 1 5 5 5 3 3 17 20 27 33 37 40 43 45 47 50 51 53 53 54 54 54 54 55 56 56
46 46 46 46 46 46 45 44 46 48 44 40 37 34 33 31 34 35 36 30 25 27 21 16 15 17 17 17 17 21 15 14 4 12 12 8 10 15 23 21 21 16 14 13 16 18 17 8 5 8 7 12 11 11 12 12 18 13 8 5 1 -1 -1 5 9 7 9 15 27 27 29 36 40 43 44 46 48 50 50 50 51 52 53 52 52 53 54 54
46 46 45 46 45 45 45 45 49 47 42 36 35 33 32 31 32 33 35 28 20 15 25 19 13 12 13 13 13 17 13 13 10 13 16 7 10 15 21 19 18 15 12 12 14 12 10 8 5 7 6 12 17 12 11 16 15 15 6 -0 -2 -2 -4 4 8 13 18 17 28 24 32 35 36 39 42 45 46 46 47 49 50 51 52 52 52 52 53 54
46 46 46 45 46 44 45 47 43 40 38 36 34 34 33 34 36 35 37 30 22 17 21 20 13 10 9 9 7 12 15 11 9 13 17 7 10 12 17 19 17 14 12 12 12 12 11 7 3 7 7 8 12 11 12 18 12 9 8 1 -1 -2 1 7 10 6 10 15 22 21 25 26 33 35 38 41 43 44 44 48 49 50 50 50 51 51 52 52
46 45 45 45 45 45 46 41 38 34 33 31 30 30 31 33 35 40 34 27 20 13 20 18 15 9 9 5 8 9 11 9 9 11 18 10 14 12 19 18 17 13 12 13 10 15 13 9 3 6 8 6 11 12 14 14 9 11 6 4 1 -1 2 3 7 10 13 17 22 24 20 20 32 33 38 42 44 44 45 46 48 48 48 49 49 49 50 51
45 44 44 44 45 45 41 36 36 32 29 26 34 36 31 36 40 37 35 21 17 15 17 17 14 11 9 5 10 10 5 4 8 16 20 13 9 14 18 17 16 14 12 17 16 12 13 8 5 7 14 15 16 15 13 9 7 6 6 5 4 1 -0 6 9 11 12 16 21 21 16 20 29 32 41 42 42 44 45 46 47 47 48 48 48 49 50 50
45 44 44 44 44 45 40 40 37 30 34 31 32 35 33 37 41 42 36 17 12 16 16 16 13 13 10 6 10 4 4 2 4 12 20 12 10 13 18 16 14 11 13 13 14 13 18 12 9 11 18 15 11 8 6 5 5 6 7 5 7 6 4 11 11 12 13 16 18 19 16 16 30 37 40 41 40 42 43 46 46 46 47 47 48 48 49 49
45 45 45 45 45 46 45 42 37 32 25 32 30 33 34 41 40 37 23 15 19 15 18 16 16 15 10 11 9 2 1 4 2 8 18 13 10 15 16 19 16 11 12 14 13 10 9 11 10 14 16 14 8 5 5 6 6 7 8 8 7 7 3 3 10 9 11 16 16 19 18 14 28 38 39 41 38 40 42 45 45 46 46 46 47 47 48 49
45 45 46 46 46 44 44 41 37 35 30 33 34 35 40 40 39 28 23 15 16 12 16 16 14 13 12 12 8 1 -0 6 3 8 16 13 12 16 18 20 14 14 13 14 12 7 7 20 21 18 15 10 4 5 8 8 6 8 6 8 6 5 7 10 12 10 11 10 12 16 19 15 20 39 37 39 39 39 43 45 46 45 45 45 47 46 47 47
45 45 46 46 43 39 38 37 38 35 31 35 35 37 40 38 31 18 18 16 11 13 14 18 12 11 11 10 5 0 -1 9 3 9 11 12 11 19 20 19 18 15 14 12 12 8 17 19 19 19 17 9 6 7 7 8 6 10 12 10 6 8 7 12 11 11 9 7 8 10 15 14 9 36 35 38 41 44 45 45 45 45 45 45 46 46 46 46
45 45 46 45 41 41 36 39 36 29 24 36 39 39 38 27 30 22 18 14 11 14 14 16 12 9 11 9 2 -1 0 10 7 9 9 9 13 17 21 20 19 15 15 16 15 10 14 14 16 15 18 10 9 7 7 9 7 8 12 10 8 7 9 9 9 10 8 8 8 6 5 8 11 30 36 41 44 45 45 45 45 45 44 45 44 45 46 45
45 45 46 43 42 42 38 37 37 39 41 39 39 37 33 24 20 21 19 11 21 15 13 12 10 10 11 7 0 -2 2 5 7 9 9 8 9 14 17 15 13 15 15 20 16 12 12 13 14 14 11 13 9 6 6 9 7 7 11 11 8 8 9 11 7 12 8 10 8 10 9 10 40 42 45 44 45 44 44 45 44 44 45 45 43 44 44 45
45 45 44 42 40 39 39 42 39 40 40 41 37 36 29 23 19 24 21 11 22 19 15 8 10 11 11 7 4 -2 -1 2 11 11 10 9 9 17 12 12 14 16 19 20 13 8 9 13 15 15 12 12 11 8 7 12 7 6 8 4 11 10 10 11 8 9 9 7 11 8 8 32 32 41 45 44 44 44 44 43 43 44 44 44 43 43 43 44
46 46 44 45 43 41 41 39 40 41 40 37 34 31 24 22 18 16 19 15 24 20 10 10 9 11 9 6 2 -1 -2 8 11 11 10 8 11 12 14 15 13 14 13 14 19 16 7 13 15 15 13 13 13 12 12 10 7 8 6 2 6 9 13 9 12 10 12 9 14 17 25 40 40 45 44 44 43 43 43 43 43 42 42 43 43 44 43 43
45 43 43 41 39 40 40 38 41 41 38 34 30 25 22 22 19 13 18 25 24 23 16 11 11 6 9 5 3 -2 -2 6 12 12 9 7 8 12 12 13 11 14 14 13 19 11 10 15 10 13 13 12 12 14 8 6 10 8 1 5 4 7 6 13 20 26 25 13 12 20 37 41 45 45 43 43 42 41 41 41 42 42 43 44 44 44 44 44
42 42 39 40 38 39 39 37 36 38 37 32 27 23 25 20 19 29 32 20 31 29 22 11 12 8 9 5 1 -3 -2 3 13 10 12 8 13 10 12 12 11 10 10 15 18 10 16 12 9 10 11 13 12 11 10 9 6 4 4 3 3 3 5 16 9 13 11 12 17 27 35 40 38 36 43 41 41 41 41 41 42 43 43 43 43 44 44 44
43 40 40 37 37 37 36 35 37 36 33 31 26 28 21 19 23 32 31 27 30 26 26 16 14 9 8 6 2 -4 -3 4 15 10 10 8 14 11 11 12 13 11 13 11 16 17 13 12 10 12 11 11 11 10 10 10 7 2 2 2 3 7 6 12 12 12 12 12 18 23 35 37 34 36 42 40 40 41 41 42 41 41 41 42 43 43 43 43
41 39 36 36 37 37 36 37 38 36 32 25 24 22 23 24 31 34 28 27 26 28 27 20 14 10 10 6 1 -4 -2 8 13 10 9 12 11 14 11 11 9 10 12 12 16 22 18 13 13 11 8 9 10 7 12 10 8 6 4 -2 -2 8 12 6 9 12 14 11 14 16 24 28 31 40 41 40 41 42 41 41 41 41 42 42 42 42 42 43
40 38 34 44 41 40 38 40 36 33 27 18 19 22 25 26 32 30 26 24 27 27 29 22 14 13 9 7 1 1 -3 3 13 13 8 15 12 13 11 10 14 13 13 14 13 16 19 23 13 13 10 9 6 7 9 10 10 6 11 8 1 16 11 8 18 9 10 11 9 13 18 27 41 43 40 40 41 42 42 41 42 42 42 42 42 42 43 43
41 39 38 46 42 40 39 36 32 27 23 22 21 20 23 25 34 22 24 26 26 27 31 29 23 16 13 8 1 -1 6 8 12 12 8 10 12 15 11 12 13 17 11 11 12 19 17 18 17 17 12 7 7 7 8 10 8 7 14 14 4 7 7 9 11 8 6 9 13 11 17 40 44 46 43 41 42 42 42 42 42 41 41 42 42 43 43 43
38 34 39 45 46 41 35 30 29 27 19 17 17 21 26 31 26 23 22 27 27 28 28 27 26 24 13 10 6 -0 6 9 12 13 9 13 15 16 12 11 11 12 11 18 15 21 23 21 22 16 9 10 7 8 10 9 10 9 8 7 1 9 10 10 8 9 6 3 4 13 31 36 45 47 43 43 42 41 42 42 41 41 42 41 41 41 43 43
40 38 42 45 45 38 33 27 27 24 19 15 15 21 24 27 27 23 22 24 27 27 27 24 23 23 21 13 6 3 4 11 10 13 9 10 18 18 11 10 13 9 10 13 8 18 30 21 16 15 7 12 9 4 7 16 17 9 6 5 6 11 10 14 10 15 9 11 9 11 32 37 43 45 43 43 42 41 41 41 41 41 42 41 41 41 42 42
42 39 40 42 45 38 33 24 17 15 17 16 22 26 28 28 25 22 22 27 30 26 24 22 20 19 22 19 16 6 5 17 12 12 11 11 17 16 12 11 10 10 10 17 17 24 19 22 15 16 15 10 19 21 17 16 17 17 12 12 7 7 8 15 14 17 13 15 10 11 31 34 42 43 42 41 40 40 40 40 41 41 41 41 40 41 41 42
41 36 34 35 38 42 35 31 30 16 19 22 26 29 31 25 21 20 24 28 28 26 26 26 24 24 19 16 14 5 6 9 18 12 12 17 25 19 14 11 12 13 10 12 34 18 18 24 21 13 14 13 16 13 14 18 17 20 18 12 13 4 15 15 12 14 15 20 13 12 34 38 42 42 41 40 40 39 39 40 40 40 40 40 41 41 41 41
33 25 32 34 38 37 35 37 36 32 22 26 28 29 26 23 21 23 26 28 28 28 27 26 23 24 22 15 15 7 6 8 13 16 11 16 27 21 16 15 14 10 26 42 30 21 22 32 26 26 18 13 17 19 21 16 18 15 19 17 16 19 15 18 15 14 15 20 18 26 37 37 37 40 40 40 39 38 38 39 39 39 40 41 41 41 41 41
43 24 26 24 32 33 28 27 36 37 30 30 24 26 26 23 27 28 28 30 28 28 29 28 26 27 27 24 24 15 7 13 16 16 17 20 25 23 19 15 15 24 43 29 30 22 26 29 38 37 33 33 30 25 23 17 18 16 14 22 20 22 27 24 16 15 18 20 29 38 39 37 37 38 39 38 38 38 38 38 38 38 39 40 41 40 41 38
29 25 24 27 24 21 23 29 35 32 34 29 27 33 32 30 32 31 32 29 29 33 31 27 27 24 23 24 25 24 15 19 24 28 21 27 27 26 21 18 15 37 33 16 21 25 29 28 37 36 31 29 31 29 27 24 18 18 17 23 25 23 27 26 25 26 33 25 28 39 39 38 37 38 38 38 38 37 37 38 38 38 38 38 39 38 38 37
41 28 33 34 32 26 26 33 36 34 34 28 28 33 35 33 33 33 32 34 29 31 27 28 28 22 22 20 27 28 24 22 26 27 29 29 28 26 24 21 17 27 23 23 22 29 27 29 37 34 30 29 33 31 26 26 32 29 26 21 26 26 24 30 35 34 35 37 39 39 39 38 38 38 38 38 38 37 37 37 37 36 37 37 37 36 35 34
37 39 33 39 43 36 35 34 33 29 26 36 25 32 33 34 33 33 30 31 33 33 30 31 27 21 20 21 24 29 30 29 28 30 37 34 38 27 29 26 27 27 20 24 27 34 33 33 37 34 31 32 30 33 30 31 34 36 35 35 36 36 37 39 40 40 40 41 39 38 37 36 38 38 38 38 37 37 37 36 36 36 36 36 35 33 33 33
46 45 44 43 37 33 33 34 32 32 29 33 34 35 34 34 33 32 32 29 33 35 32 30 28 29 21 23 31 36 33 32 30 38 38 35 33 34 33 34 27 27 19 28 35 42 37 35 37 36 30 33 32 32 34 35 36 37 37 38 39 38 39 40 37 40 40 38 38 36 34 32 37 37 36 37 36 36 35 35 36 36 36 35 34 33 33 33
46 50 47 44 35 37 34 36 37 36 29 35 35 36 35 34 35 33 32 32 29 31 36 36 36 36 35 36 33 39 35 38 38 44 45 37 34 30 30 27 22 25 27 34 37 36 32 34 35 31 27 31 36 37 36 34 31 30 33 38 37 38 38 38 38 41 41 39 35 32 32 34 36 36 35 36 35 35 35 35 35 35 35 34 33 33 33 34